Time,TemperatureF,DewpointF,PressureIn,WindDirection,WindDirectionDegrees,WindSpeedMPH,WindSpeedGustMPH,Humidity,HourlyPrecipIn,Conditions,Clouds,dailyrainin,SoftwareType,DateUTC
2013-04-16 00:04:00,40.2,35.2,30.17,East,96,0.0,0.0,82,0.00,,---,0.00,VWS V14.01,2013-04-16 07:04:00,
2013-04-16 00:09:00,40.1,35.1,30.17,East,96,0.0,0.0,82,0.00,,---,0.00,VWS V14.01,2013-04-16 07:09:00,
2013-04-16 00:14:00,39.9,34.9,30.17,East,96,0.0,0.0,82,0.00,,---,0.00,VWS V14.01,2013-04-16 07:14:00,
2013-04-16 00:19:00,39.9,34.9,30.17,East,96,0.0,0.0,82,0.00,,---,0.00,VWS V14.01,2013-04-16 07:19:00,
2013-04-16 00:24:00,39.8,35.1,30.17,East,96,0.0,0.0,83,0.00,,---,0.00,VWS V14.01,2013-04-16 07:24:00,
2013-04-16 00:29:00,39.6,34.9,30.17,East,96,0.0,0.0,83,0.00,,---,0.00,VWS V14.01,2013-04-16 07:29:00,
2013-04-16 00:34:00,39.6,34.9,30.18,East,96,0.0,0.0,83,0.00,,---,0.00,VWS V14.01,2013-04-16 07:34:00,
2013-04-16 00:39:00,39.5,34.8,30.18,East,96,0.0,0.0,83,0.00,,---,0.00,VWS V14.01,2013-04-16 07:39:00,
2013-04-16 00:44:00,39.5,34.8,30.18,East,96,0.0,0.0,83,0.00,,---,0.00,VWS V14.01,2013-04-16 07:44:00,
2013-04-16 00:49:00,39.5,34.8,30.18,East,96,0.0,0.0,83,0.00,,---,0.00,VWS V14.01,2013-04-16 07:49:00,
2013-04-16 00:54:00,39.3,34.9,30.18,East,96,0.0,0.0,84,0.00,,---,0.00,VWS V14.01,2013-04-16 07:54:00,
2013-04-16 00:59:00,39.2,34.8,30.18,East,96,0.0,0.0,84,0.00,,---,0.00,VWS V14.01,2013-04-16 07:59:00,
2013-04-16 01:04:00,39.2,34.8,30.18,East,96,0.0,0.0,84,0.00,,---,0.00,VWS V14.01,2013-04-16 08:04:00,
2013-04-16 01:09:00,39.1,34.7,30.18,East,96,0.0,0.0,84,0.00,,---,0.00,VWS V14.01,2013-04-16 08:09:00,
2013-04-16 01:14:00,38.9,34.5,30.18,East,96,0.0,0.0,84,0.00,,---,0.00,VWS V14.01,2013-04-16 08:14:00,
2013-04-16 01:19:00,38.8,34.4,30.18,East,96,0.0,0.0,84,0.00,,---,0.00,VWS V14.01,2013-04-16 08:19:00,
2013-04-16 01:25:00,38.8,34.4,30.19,East,96,0.0,0.0,84,0.00,,---,0.00,VWS V14.01,2013-04-16 08:25:00,
2013-04-16 01:30:00,38.6,34.2,30.19,East,96,0.0,0.0,84,0.00,,---,0.00,VWS V14.01,2013-04-16 08:30:00,
2013-04-16 01:35:00,38.6,34.2,30.19,East,96,0.0,0.0,84,0.00,,---,0.00,VWS V14.01,2013-04-16 08:35:00,
2013-04-16 01:40:00,38.6,34.2,30.19,East,96,0.0,0.0,84,0.00,,---,0.00,VWS V14.01,2013-04-16 08:40:00,
2013-04-16 01:45:00,38.5,34.1,30.19,East,96,0.0,0.0,84,0.00,,---,0.00,VWS V14.01,2013-04-16 08:45:00,
2013-04-16 01:50:00,38.5,34.1,30.19,East,96,0.0,0.0,84,0.00,,---,0.00,VWS V14.01,2013-04-16 08:50:00,
2013-04-16 01:55:00,38.3,34.2,30.19,East,96,0.0,0.0,85,0.00,,---,0.00,VWS V14.01,2013-04-16 08:55:00,
2013-04-16 02:00:00,38.3,34.2,30.19,East,96,0.0,0.0,85,0.00,,---,0.00,VWS V14.01,2013-04-16 09:00:00,
2013-04-16 02:05:00,38.3,34.2,30.19,East,96,0.0,0.0,85,0.00,,---,0.00,VWS V14.01,2013-04-16 09:05:00,
2013-04-16 02:10:00,38.3,34.2,30.19,East,96,0.0,0.0,85,0.00,,---,0.00,VWS V14.01,2013-04-16 09:10:00,
2013-04-16 02:15:00,38.3,34.2,30.19,East,96,0.0,0.0,85,0.00,,---,0.00,VWS V14.01,2013-04-16 09:15:00,
2013-04-16 02:20:00,38.3,34.2,30.19,East,96,0.0,0.0,85,0.00,,---,0.00,VWS V14.01,2013-04-16 09:20:00,
2013-04-16 02:25:00,38.2,34.1,30.20,East,96,0.0,0.0,85,0.00,,---,0.00,VWS V14.01,2013-04-16 09:25:00,
2013-04-16 02:30:00,38.2,34.1,30.20,East,96,0.0,0.0,85,0.00,,---,0.00,VWS V14.01,2013-04-16 09:30:00,
2013-04-16 02:35:00,38.2,34.1,30.20,East,96,0.0,0.0,85,0.00,,---,0.00,VWS V14.01,2013-04-16 09:35:00,
2013-04-16 02:40:00,38.2,34.1,30.20,East,96,0.0,0.0,85,0.00,,---,0.00,VWS V14.01,2013-04-16 09:40:00,
2013-04-16 02:45:00,38.2,34.1,30.20,East,96,0.0,0.0,85,0.00,,---,0.00,VWS V14.01,2013-04-16 09:45:00,
2013-04-16 02:50:00,38.2,34.1,30.20,East,96,0.0,0.0,85,0.00,,---,0.00,VWS V14.01,2013-04-16 09:50:00,
2013-04-16 02:55:00,38.2,34.4,30.20,East,96,0.0,0.0,86,0.00,,---,0.00,VWS V14.01,2013-04-16 09:55:00,
2013-04-16 03:00:00,38.0,34.2,30.20,East,96,0.0,0.0,86,0.00,,---,0.00,VWS V14.01,2013-04-16 10:00:00,
2013-04-16 03:06:00,38.0,34.2,30.20,East,96,0.0,0.0,86,0.00,,---,0.00,VWS V14.01,2013-04-16 10:06:00,
2013-04-16 03:11:00,37.9,34.1,30.21,East,96,0.0,0.0,86,0.00,,---,0.00,VWS V14.01,2013-04-16 10:11:00,
2013-04-16 03:16:00,37.9,34.1,30.20,East,96,0.0,0.0,86,0.00,,---,0.00,VWS V14.01,2013-04-16 10:16:00,
2013-04-16 03:21:00,37.8,34.0,30.21,East,96,0.0,0.0,86,0.00,,---,0.00,VWS V14.01,2013-04-16 10:21:00,
2013-04-16 03:26:00,37.8,34.0,30.21,East,96,0.0,0.0,86,0.00,,---,0.00,VWS V14.01,2013-04-16 10:26:00,
2013-04-16 03:31:00,37.6,33.8,30.21,East,96,0.0,0.0,86,0.00,,---,0.00,VWS V14.01,2013-04-16 10:31:00,
2013-04-16 03:36:00,37.6,33.8,30.21,East,96,0.0,0.0,86,0.00,,---,0.00,VWS V14.01,2013-04-16 10:36:00,
2013-04-16 03:41:00,37.6,33.8,30.22,East,96,0.0,0.0,86,0.00,,---,0.00,VWS V14.01,2013-04-16 10:41:00,
2013-04-16 03:46:00,37.5,33.7,30.22,East,96,0.0,0.0,86,0.00,,---,0.00,VWS V14.01,2013-04-16 10:46:00,
2013-04-16 03:51:00,37.3,33.5,30.22,East,96,0.0,0.0,86,0.00,,---,0.00,VWS V14.01,2013-04-16 10:51:00,
2013-04-16 03:56:00,37.3,33.5,30.22,East,96,0.0,0.0,86,0.00,,---,0.00,VWS V14.01,2013-04-16 10:56:00,
2013-04-16 04:01:00,37.3,33.5,30.22,East,96,0.0,0.0,86,0.00,,---,0.00,VWS V14.01,2013-04-16 11:01:00,
2013-04-16 04:06:00,37.2,33.4,30.22,East,96,0.0,0.0,86,0.00,,---,0.00,VWS V14.01,2013-04-16 11:06:00,
2013-04-16 04:11:00,37.0,33.2,30.22,East,96,0.0,0.0,86,0.00,,---,0.00,VWS V14.01,2013-04-16 11:11:00,
2013-04-16 04:16:00,37.0,33.2,30.22,East,96,0.0,0.0,86,0.00,,---,0.00,VWS V14.01,2013-04-16 11:16:00,
2013-04-16 04:22:00,36.9,33.1,30.23,East,96,0.0,0.0,86,0.00,,---,0.00,VWS V14.01,2013-04-16 11:22:00,
2013-04-16 04:27:00,36.9,33.1,30.23,East,96,0.0,0.0,86,0.00,,---,0.00,VWS V14.01,2013-04-16 11:27:00,
2013-04-16 04:32:00,36.9,33.1,30.23,East,96,0.0,0.0,86,0.00,,---,0.00,VWS V14.01,2013-04-16 11:32:00,
2013-04-16 04:37:00,36.9,33.4,30.23,East,96,0.0,0.0,87,0.00,,---,0.00,VWS V14.01,2013-04-16 11:37:00,
2013-04-16 04:42:00,36.9,33.4,30.23,East,96,0.0,0.0,87,0.00,,---,0.00,VWS V14.01,2013-04-16 11:42:00,
2013-04-16 04:47:00,36.8,33.3,30.23,East,96,0.0,0.0,87,0.00,,---,0.00,VWS V14.01,2013-04-16 11:47:00,
2013-04-16 04:52:00,36.8,33.3,30.23,East,96,0.0,0.0,87,0.00,,---,0.00,VWS V14.01,2013-04-16 11:52:00,
2013-04-16 04:57:00,36.6,33.1,30.23,East,96,0.0,0.0,87,0.00,,---,0.00,VWS V14.01,2013-04-16 11:57:00,
2013-04-16 05:02:00,36.6,33.1,30.24,East,96,0.0,0.0,87,0.00,,---,0.00,VWS V14.01,2013-04-16 12:02:00,
2013-04-16 05:07:00,36.6,33.1,30.24,East,96,0.0,0.0,87,0.00,,---,0.00,VWS V14.01,2013-04-16 12:07:00,
2013-04-16 05:12:00,36.6,33.1,30.24,East,96,0.0,0.0,87,0.00,,---,0.00,VWS V14.01,2013-04-16 12:12:00,
2013-04-16 05:17:00,36.6,33.1,30.24,East,96,0.0,0.0,87,0.00,,---,0.00,VWS V14.01,2013-04-16 12:17:00,
2013-04-16 05:22:00,36.8,33.3,30.24,East,96,0.0,0.0,87,0.00,,---,0.00,VWS V14.01,2013-04-16 12:22:00,
2013-04-16 05:28:00,36.9,33.4,30.24,East,96,0.0,0.0,87,0.00,,---,0.00,VWS V14.01,2013-04-16 12:28:00,
2013-04-16 05:33:00,37.0,33.5,30.25,East,96,0.0,0.0,87,0.00,,---,0.00,VWS V14.01,2013-04-16 12:33:00,
2013-04-16 05:38:00,37.2,33.7,30.25,East,96,0.0,0.0,87,0.00,,---,0.00,VWS V14.01,2013-04-16 12:38:00,
2013-04-16 05:43:00,37.5,34.3,30.25,East,96,0.0,0.0,88,0.00,,---,0.00,VWS V14.01,2013-04-16 12:43:00,
2013-04-16 05:48:00,37.5,34.3,30.25,East,96,0.0,0.0,88,0.00,,---,0.00,VWS V14.01,2013-04-16 12:48:00,
2013-04-16 05:53:00,37.6,34.4,30.25,East,96,0.0,0.0,88,0.00,,---,0.00,VWS V14.01,2013-04-16 12:53:00,
2013-04-16 05:58:00,37.8,34.6,30.25,East,96,0.0,0.0,88,0.00,,---,0.00,VWS V14.01,2013-04-16 12:58:00,
2013-04-16 06:03:00,37.8,34.6,30.25,East,96,0.0,0.0,88,0.00,,---,0.00,VWS V14.01,2013-04-16 13:03:00,
2013-04-16 06:08:00,37.9,34.7,30.25,East,96,0.0,0.0,88,0.00,,---,0.00,VWS V14.01,2013-04-16 13:08:00,
2013-04-16 06:13:00,38.0,34.8,30.25,East,96,0.0,0.0,88,0.00,,---,0.00,VWS V14.01,2013-04-16 13:13:00,
2013-04-16 06:18:00,38.0,34.8,30.25,East,96,0.0,0.0,88,0.00,,---,0.00,VWS V14.01,2013-04-16 13:18:00,
2013-04-16 06:23:00,38.2,35.0,30.26,East,96,0.0,0.0,88,0.00,,---,0.00,VWS V14.01,2013-04-16 13:23:00,
2013-04-16 06:28:00,38.3,35.1,30.26,East,96,0.0,0.0,88,0.00,,---,0.00,VWS V14.01,2013-04-16 13:28:00,
2013-04-16 06:33:00,38.5,35.3,30.26,East,96,0.0,0.0,88,0.00,,---,0.00,VWS V14.01,2013-04-16 13:33:00,
2013-04-16 06:38:00,38.6,35.4,30.26,East,96,0.0,0.0,88,0.00,,---,0.00,VWS V14.01,2013-04-16 13:38:00,
2013-04-16 06:43:00,38.8,35.6,30.27,East,96,0.0,0.0,88,0.00,,---,0.00,VWS V14.01,2013-04-16 13:43:00,
2013-04-16 06:48:00,38.8,35.6,30.27,East,96,0.0,0.0,88,0.00,,---,0.00,VWS V14.01,2013-04-16 13:48:00,
2013-04-16 06:53:00,38.8,35.6,30.27,East,96,0.0,0.0,88,0.00,,---,0.00,VWS V14.01,2013-04-16 13:53:00,
2013-04-16 06:59:00,38.9,35.7,30.27,East,96,0.0,0.0,88,0.00,,---,0.00,VWS V14.01,2013-04-16 13:59:00,
2013-04-16 07:04:00,39.1,35.8,30.28,East,96,0.0,0.0,88,0.00,,---,0.00,VWS V14.01,2013-04-16 14:04:00,
2013-04-16 07:09:00,39.1,35.8,30.28,East,96,0.0,0.0,88,0.00,,---,0.00,VWS V14.01,2013-04-16 14:09:00,
2013-04-16 07:14:00,39.2,36.0,30.28,East,96,0.0,0.0,88,0.00,,---,0.00,VWS V14.01,2013-04-16 14:14:00,
2013-04-16 07:19:00,39.2,36.0,30.28,East,96,0.0,0.0,88,0.00,,---,0.00,VWS V14.01,2013-04-16 14:19:00,
2013-04-16 07:24:00,39.3,36.0,30.28,East,96,0.0,0.0,88,0.00,,---,0.00,VWS V14.01,2013-04-16 14:24:00,
2013-04-16 07:29:00,39.5,36.2,30.28,East,96,0.0,0.0,88,0.00,,---,0.00,VWS V14.01,2013-04-16 14:29:00,
2013-04-16 07:34:00,39.6,36.3,30.28,East,96,0.0,0.0,88,0.00,,---,0.00,VWS V14.01,2013-04-16 14:34:00,
2013-04-16 07:39:00,39.6,36.3,30.29,East,96,0.0,0.0,88,0.00,,---,0.00,VWS V14.01,2013-04-16 14:39:00,
2013-04-16 07:44:00,39.8,36.5,30.29,East,96,0.0,0.0,88,0.00,,---,0.00,VWS V14.01,2013-04-16 14:44:00,
2013-04-16 07:49:00,39.9,36.6,30.29,East,96,0.0,0.0,88,0.00,,---,0.00,VWS V14.01,2013-04-16 14:49:00,
2013-04-16 07:54:00,39.9,36.6,30.29,East,96,0.0,0.0,88,0.00,,---,0.00,VWS V14.01,2013-04-16 14:54:00,
2013-04-16 07:59:00,40.1,36.8,30.29,East,96,0.0,0.0,88,0.00,,---,0.00,VWS V14.01,2013-04-16 14:59:00,
2013-04-16 08:04:00,40.1,36.8,30.30,East,96,0.0,0.0,88,0.00,,---,0.00,VWS V14.01,2013-04-16 15:04:00,
2013-04-16 08:09:00,40.3,37.0,30.30,East,96,0.0,0.0,88,0.00,,---,0.00,VWS V14.01,2013-04-16 15:09:00,
2013-04-16 08:14:00,40.3,37.0,30.30,East,96,0.0,0.0,88,0.00,,---,0.00,VWS V14.01,2013-04-16 15:14:00,
2013-04-16 08:19:00,40.3,37.0,30.30,East,96,0.0,0.0,88,0.00,,---,0.00,VWS V14.01,2013-04-16 15:19:00,
2013-04-16 08:24:00,40.5,37.2,30.30,East,96,0.0,0.0,88,0.00,,---,0.00,VWS V14.01,2013-04-16 15:24:00,
2013-04-16 08:29:00,40.5,37.2,30.30,East,96,0.0,0.0,88,0.00,,---,0.00,VWS V14.01,2013-04-16 15:29:00,
2013-04-16 08:34:00,40.5,37.2,30.30,East,96,0.0,0.0,88,0.00,,---,0.00,VWS V14.01,2013-04-16 15:34:00,
2013-04-16 08:39:00,40.6,37.3,30.30,East,96,0.0,0.0,88,0.00,,---,0.00,VWS V14.01,2013-04-16 15:39:00,
2013-04-16 08:45:00,40.8,37.5,30.30,East,96,0.0,0.0,88,0.00,,---,0.00,VWS V14.01,2013-04-16 15:45:00,
2013-04-16 08:50:00,40.9,37.6,30.30,East,96,0.0,0.0,88,0.00,,---,0.00,VWS V14.01,2013-04-16 15:50:00,
2013-04-16 08:55:00,40.9,37.6,30.30,East,96,0.0,0.0,88,0.00,,---,0.00,VWS V14.01,2013-04-16 15:55:00,
2013-04-16 09:00:00,41.1,37.8,30.30,East,96,0.0,0.0,88,0.00,,---,0.00,VWS V14.01,2013-04-16 16:00:00,
2013-04-16 09:05:00,41.1,37.8,30.30,East,96,0.0,0.0,88,0.00,,---,0.00,VWS V14.01,2013-04-16 16:05:00,
2013-04-16 09:10:00,41.3,38.0,30.30,East,96,0.0,0.0,88,0.00,,---,0.00,VWS V14.01,2013-04-16 16:10:00,
2013-04-16 09:15:00,41.5,38.2,30.31,East,96,0.0,0.0,88,0.00,,---,0.00,VWS V14.01,2013-04-16 16:15:00,
2013-04-16 09:20:00,41.5,38.2,30.31,East,96,0.0,0.0,88,0.00,,---,0.00,VWS V14.01,2013-04-16 16:20:00,
2013-04-16 09:25:00,41.8,38.8,30.31,East,96,0.0,0.0,89,0.00,,---,0.00,VWS V14.01,2013-04-16 16:25:00,
2013-04-16 09:30:00,41.9,38.6,30.31,East,96,0.0,0.0,88,0.00,,---,0.00,VWS V14.01,2013-04-16 16:30:00,
2013-04-16 09:35:00,42.1,38.8,30.31,East,96,0.0,0.0,88,0.00,,---,0.00,VWS V14.01,2013-04-16 16:35:00,
2013-04-16 09:40:00,42.3,39.0,30.31,SW,224,0.0,0.0,88,0.00,,---,0.00,VWS V14.01,2013-04-16 16:40:00,
2013-04-16 09:45:00,42.5,39.2,30.31,WNW,296,0.0,0.0,88,0.00,,---,0.00,VWS V14.01,2013-04-16 16:45:00,
2013-04-16 09:50:00,42.8,39.5,30.31,WNW,296,0.0,0.0,88,0.00,,---,0.00,VWS V14.01,2013-04-16 16:50:00,
2013-04-16 09:56:00,42.9,39.6,30.31,NNW,348,0.0,0.0,88,0.00,,---,0.00,VWS V14.01,2013-04-16 16:56:00,
2013-04-16 10:01:00,43.2,39.9,30.31,NW,320,0.0,0.0,88,0.00,,---,0.00,VWS V14.01,2013-04-16 17:01:00,
2013-04-16 10:06:00,43.2,39.9,30.31,NW,318,0.0,0.0,88,0.00,,---,0.00,VWS V14.01,2013-04-16 17:06:00,
2013-04-16 10:11:00,43.8,40.5,30.31,NW,318,0.0,0.0,88,0.00,,---,0.00,VWS V14.01,2013-04-16 17:11:00,
2013-04-16 10:16:00,44.1,40.5,30.31,NNW,336,0.0,0.0,87,0.00,,---,0.00,VWS V14.01,2013-04-16 17:16:00,
2013-04-16 10:21:00,44.2,40.3,30.31,NNW,333,0.0,0.0,86,0.00,,---,0.00,VWS V14.01,2013-04-16 17:21:00,
2013-04-16 10:26:00,44.5,40.3,30.32,NW,326,0.0,0.0,85,0.00,,---,0.00,VWS V14.01,2013-04-16 17:26:00,
2013-04-16 10:31:00,44.8,40.3,30.31,NW,326,0.0,0.0,84,0.00,,---,0.00,VWS V14.01,2013-04-16 17:31:00,
2013-04-16 10:36:00,45.1,40.6,30.31,NNW,331,0.0,0.0,84,0.00,,---,0.00,VWS V14.01,2013-04-16 17:36:00,
2013-04-16 10:41:00,45.2,39.7,30.31,NE,40,0.0,0.0,81,0.00,,---,0.00,VWS V14.01,2013-04-16 17:41:00,
2013-04-16 10:46:00,45.2,39.4,30.31,NE,38,0.0,0.0,80,0.00,,---,0.00,VWS V14.01,2013-04-16 17:46:00,
2013-04-16 10:51:00,45.5,39.7,30.31,ESE,109,0.0,0.0,80,0.00,,---,0.00,VWS V14.01,2013-04-16 17:51:00,
2013-04-16 10:56:00,46.2,40.1,30.31,ESE,117,0.0,0.0,79,0.00,,---,0.00,VWS V14.01,2013-04-16 17:56:00,
2013-04-16 11:01:00,46.8,40.3,30.31,NW,309,0.0,0.0,78,0.00,,---,0.00,VWS V14.01,2013-04-16 18:01:00,
2013-04-16 11:06:00,47.3,39.5,30.31,NNE,22,0.0,0.0,74,0.00,,---,0.00,VWS V14.01,2013-04-16 18:06:00,
2013-04-16 11:12:00,47.3,38.7,30.31,NNW,338,0.0,0.0,72,0.00,,---,0.00,VWS V14.01,2013-04-16 18:12:00,
2013-04-16 11:17:00,47.6,39.0,30.31,NNW,339,0.0,0.0,72,0.00,,---,0.00,VWS V14.01,2013-04-16 18:17:00,
2013-04-16 11:22:00,48.2,38.5,30.31,West,281,0.0,0.0,69,0.00,,---,0.00,VWS V14.01,2013-04-16 18:22:00,
2013-04-16 11:27:00,48.3,38.2,30.31,WNW,292,0.0,0.0,68,0.00,,---,0.00,VWS V14.01,2013-04-16 18:27:00,
2013-04-16 11:32:00,48.8,38.3,30.31,WNW,292,0.0,0.0,67,0.00,,---,0.00,VWS V14.01,2013-04-16 18:32:00,
2013-04-16 11:37:00,49.1,38.2,30.31,WNW,292,0.0,0.0,66,0.00,,---,0.00,VWS V14.01,2013-04-16 18:37:00,
2013-04-16 11:42:00,49.4,38.1,30.31,North,350,0.0,0.0,65,0.00,,---,0.00,VWS V14.01,2013-04-16 18:42:00,
2013-04-16 11:47:00,49.4,38.1,30.31,WNW,293,0.0,0.0,65,0.00,,---,0.00,VWS V14.01,2013-04-16 18:47:00,
2013-04-16 11:52:00,49.5,37.8,30.31,NW,325,0.0,0.0,64,0.00,,---,0.00,VWS V14.01,2013-04-16 18:52:00,
2013-04-16 11:57:00,49.6,37.9,30.31,WNW,285,0.0,0.0,64,0.00,,---,0.00,VWS V14.01,2013-04-16 18:57:00,
2013-04-16 12:02:00,49.9,37.8,30.32,NW,325,0.0,0.0,63,0.00,,---,0.00,VWS V14.01,2013-04-16 19:02:00,
2013-04-16 12:07:00,49.8,37.3,30.32,NW,323,0.0,0.0,62,0.00,,---,0.00,VWS V14.01,2013-04-16 19:07:00,
2013-04-16 12:12:00,49.9,37.4,30.31,NNE,18,0.0,0.0,62,0.00,,---,0.00,VWS V14.01,2013-04-16 19:12:00,
2013-04-16 12:17:00,50.1,37.6,30.32,NW,311,0.0,0.0,62,0.00,,---,0.00,VWS V14.01,2013-04-16 19:17:00,
2013-04-16 12:22:00,51.0,38.5,30.32,NNW,329,0.0,0.0,62,0.00,,---,0.00,VWS V14.01,2013-04-16 19:22:00,
2013-04-16 12:27:00,51.4,38.0,30.32,NW,307,0.0,0.0,60,0.00,,---,0.00,VWS V14.01,2013-04-16 19:27:00,
2013-04-16 12:32:00,51.3,37.0,30.31,NW,310,0.0,0.0,58,0.00,,---,0.00,VWS V14.01,2013-04-16 19:32:00,
2013-04-16 12:37:00,51.3,37.0,30.31,West,281,0.0,0.0,58,0.00,,---,0.00,VWS V14.01,2013-04-16 19:37:00,
2013-04-16 12:42:00,51.6,37.3,30.31,NNW,330,0.0,0.0,58,0.00,,---,0.00,VWS V14.01,2013-04-16 19:42:00,
2013-04-16 12:48:00,52.2,37.9,30.31,North,351,0.0,0.0,58,0.00,,---,0.00,VWS V14.01,2013-04-16 19:48:00,
2013-04-16 12:53:00,52.2,37.4,30.31,NNE,21,0.0,0.0,57,0.00,,---,0.00,VWS V14.01,2013-04-16 19:53:00,
2013-04-16 12:58:00,52.5,36.8,30.31,NW,323,0.0,0.0,55,0.00,,---,0.00,VWS V14.01,2013-04-16 19:58:00,
2013-04-16 13:03:00,52.0,35.9,30.31,ENE,59,0.0,0.0,54,0.00,,---,0.00,VWS V14.01,2013-04-16 20:03:00,
2013-04-16 13:08:00,52.3,37.1,30.31,NNW,346,0.0,0.0,56,0.00,,---,0.00,VWS V14.01,2013-04-16 20:08:00,
2013-04-16 13:13:00,52.8,37.5,30.31,NW,324,0.0,0.0,56,0.00,,---,0.00,VWS V14.01,2013-04-16 20:13:00,
2013-04-16 13:18:00,52.8,36.6,30.31,WNW,291,0.0,0.0,54,0.00,,---,0.00,VWS V14.01,2013-04-16 20:18:00,
2013-04-16 13:23:00,53.2,36.0,30.31,WNW,298,0.0,0.0,52,0.00,,---,0.00,VWS V14.01,2013-04-16 20:23:00,
2013-04-16 13:28:00,53.2,37.0,30.31,North,360,0.0,0.0,54,0.00,,---,0.00,VWS V14.01,2013-04-16 20:28:00,
2013-04-16 13:33:00,53.3,36.6,30.31,NW,320,0.0,0.0,53,0.00,,---,0.00,VWS V14.01,2013-04-16 20:33:00,
2013-04-16 13:38:00,53.2,36.5,30.31,West,277,0.0,0.0,53,0.00,,---,0.00,VWS V14.01,2013-04-16 20:38:00,
2013-04-16 13:43:00,53.1,36.9,30.31,NNW,334,0.0,0.0,54,0.00,,---,0.00,VWS V14.01,2013-04-16 20:43:00,
2013-04-16 13:48:00,53.5,36.3,30.31,WNW,294,0.0,0.0,52,0.00,,---,0.00,VWS V14.01,2013-04-16 20:48:00,
2013-04-16 13:53:00,53.8,35.1,30.31,NNE,13,0.0,0.0,49,0.00,,---,0.00,VWS V14.01,2013-04-16 20:53:00,
2013-04-16 13:58:00,53.9,35.7,30.31,NE,38,0.0,0.0,50,0.00,,---,0.00,VWS V14.01,2013-04-16 20:58:00,
2013-04-16 14:03:00,54.1,35.4,30.30,NW,323,0.0,0.0,49,0.00,,---,0.00,VWS V14.01,2013-04-16 21:03:00,
2013-04-16 14:08:00,53.9,33.6,30.30,NW,306,0.0,0.0,46,0.00,,---,0.00,VWS V14.01,2013-04-16 21:08:00,
2013-04-16 14:13:00,54.2,34.4,30.30,WNW,303,0.0,0.0,47,0.00,,---,0.00,VWS V14.01,2013-04-16 21:13:00,
2013-04-16 14:18:00,54.5,34.7,30.31,NNW,336,0.0,0.0,47,0.00,,---,0.00,VWS V14.01,2013-04-16 21:18:00,
2013-04-16 14:23:00,54.5,34.2,30.31,NW,310,0.0,0.0,46,0.00,,---,0.00,VWS V14.01,2013-04-16 21:23:00,
2013-04-16 14:28:00,54.8,34.4,30.31,WNW,302,0.0,0.0,46,0.00,,---,0.00,VWS V14.01,2013-04-16 21:28:00,
2013-04-16 14:34:00,55.0,33.5,30.31,North,360,0.0,0.0,44,0.00,,---,0.00,VWS V14.01,2013-04-16 21:34:00,
2013-04-16 14:39:00,55.3,34.9,30.31,WNW,282,0.0,0.0,46,0.00,,---,0.00,VWS V14.01,2013-04-16 21:39:00,
2013-04-16 14:44:00,55.1,32.4,30.31,NNE,29,0.0,0.0,42,0.00,,---,0.00,VWS V14.01,2013-04-16 21:44:00,
2013-04-16 14:49:00,55.1,31.8,30.31,North,360,0.0,0.0,41,0.00,,---,0.00,VWS V14.01,2013-04-16 21:49:00,
2013-04-16 14:54:00,55.3,32.0,30.31,NW,319,0.0,0.0,41,0.00,,---,0.00,VWS V14.01,2013-04-16 21:54:00,
2013-04-16 14:59:00,55.3,30.1,30.31,West,269,0.0,0.0,38,0.00,,---,0.00,VWS V14.01,2013-04-16 21:59:00,
2013-04-16 15:04:00,55.7,30.5,30.31,WNW,303,0.0,0.0,38,0.00,,---,0.00,VWS V14.01,2013-04-16 22:04:00,
2013-04-16 15:09:00,55.1,33.0,30.32,ENE,61,0.0,0.0,43,0.00,,---,0.00,VWS V14.01,2013-04-16 22:09:00,
2013-04-16 15:14:00,53.3,34.7,30.32,East,97,0.0,0.0,49,0.00,,---,0.00,VWS V14.01,2013-04-16 22:14:00,
2013-04-16 15:19:00,51.7,34.7,30.32,East,98,0.0,0.0,52,0.00,,---,0.00,VWS V14.01,2013-04-16 22:19:00,
2013-04-16 15:24:00,51.1,35.0,30.32,East,101,0.0,0.0,54,0.00,,---,0.00,VWS V14.01,2013-04-16 22:24:00,
2013-04-16 15:29:00,51.4,34.9,30.32,ESE,107,0.0,0.0,53,0.00,,---,0.00,VWS V14.01,2013-04-16 22:29:00,
2013-04-16 15:34:00,50.5,33.5,30.32,SE,130,0.0,0.0,52,0.00,,---,0.00,VWS V14.01,2013-04-16 22:34:00,
2013-04-16 15:39:00,50.5,34.5,30.32,SSE,154,0.0,0.0,54,0.00,,---,0.00,VWS V14.01,2013-04-16 22:39:00,
2013-04-16 15:44:00,50.7,34.7,30.33,ESE,102,0.0,0.0,54,0.00,,---,0.00,VWS V14.01,2013-04-16 22:44:00,
2013-04-16 15:49:00,51.0,35.0,30.32,South,171,0.0,0.0,54,0.00,,---,0.00,VWS V14.01,2013-04-16 22:49:00,
2013-04-16 15:54:00,51.1,35.0,30.32,SSW,209,0.0,0.0,54,0.00,,---,0.00,VWS V14.01,2013-04-16 22:54:00,
2013-04-16 16:00:00,51.0,35.0,30.32,SSE,167,0.0,0.0,54,0.00,,---,0.00,VWS V14.01,2013-04-16 23:00:00,
2013-04-16 16:05:00,50.7,34.2,30.32,ESE,117,0.0,0.0,53,0.00,,---,0.00,VWS V14.01,2013-04-16 23:05:00,
2013-04-16 16:10:00,50.7,34.2,30.32,SE,136,0.0,0.0,53,0.00,,---,0.00,VWS V14.01,2013-04-16 23:10:00,
2013-04-16 16:15:00,50.8,34.3,30.32,NNE,19,0.0,0.0,53,0.00,,---,0.00,VWS V14.01,2013-04-16 23:15:00,
2013-04-16 16:20:00,51.4,33.9,30.32,SE,130,0.0,0.0,51,0.00,,---,0.00,VWS V14.01,2013-04-16 23:20:00,
2013-04-16 16:25:00,52.0,33.5,30.32,NE,41,0.0,0.0,49,0.00,,---,0.00,VWS V14.01,2013-04-16 23:25:00,
2013-04-16 16:30:00,52.2,33.6,30.32,NW,323,0.0,0.0,49,0.00,,---,0.00,VWS V14.01,2013-04-16 23:30:00,
2013-04-16 16:35:00,52.6,32.4,30.32,NW,321,0.0,0.0,46,0.00,,---,0.00,VWS V14.01,2013-04-16 23:35:00,
2013-04-16 16:40:00,52.3,32.7,30.33,NNE,26,0.0,0.0,47,0.00,,---,0.00,VWS V14.01,2013-04-16 23:40:00,
2013-04-16 16:45:00,52.0,34.0,30.32,NE,36,0.0,0.0,50,0.00,,---,0.00,VWS V14.01,2013-04-16 23:45:00,
2013-04-16 16:50:00,51.7,33.7,30.32,East,80,0.0,0.0,50,0.00,,---,0.00,VWS V14.01,2013-04-16 23:50:00,
2013-04-16 16:55:00,51.6,31.5,30.32,NE,55,0.0,0.0,46,0.00,,---,0.00,VWS V14.01,2013-04-16 23:55:00,
2013-04-16 17:00:00,51.7,31.6,30.32,NE,41,0.0,0.0,46,0.00,,---,0.00,VWS V14.01,2013-04-17 00:00:00,
2013-04-16 17:05:00,52.8,32.6,30.32,NE,42,0.0,0.0,46,0.00,,---,0.00,VWS V14.01,2013-04-17 00:05:00,
2013-04-16 17:10:00,53.2,30.7,30.32,NE,45,0.0,0.0,42,0.00,,---,0.00,VWS V14.01,2013-04-17 00:10:00,
2013-04-16 17:16:00,53.3,30.8,30.32,NE,38,0.0,0.0,42,0.00,,---,0.00,VWS V14.01,2013-04-17 00:16:00,
2013-04-16 17:21:00,53.9,31.9,30.32,NE,53,0.0,0.0,43,0.00,,---,0.00,VWS V14.01,2013-04-17 00:21:00,
2013-04-16 17:26:00,54.4,31.8,30.32,NNE,13,0.0,0.0,42,0.00,,---,0.00,VWS V14.01,2013-04-17 00:26:00,
2013-04-16 17:31:00,54.7,30.9,30.32,NW,326,0.0,0.0,40,0.00,,---,0.00,VWS V14.01,2013-04-17 00:31:00,
2013-04-16 17:36:00,54.8,31.0,30.31,NE,47,0.0,0.0,40,0.00,,---,0.00,VWS V14.01,2013-04-17 00:36:00,
2013-04-16 17:41:00,55.3,30.8,30.31,NNW,329,0.0,0.0,39,0.00,,---,0.00,VWS V14.01,2013-04-17 00:41:00,
2013-04-16 17:46:00,55.7,31.1,30.31,NNW,329,0.0,0.0,39,0.00,,---,0.00,VWS V14.01,2013-04-17 00:46:00,
2013-04-16 17:51:00,56.0,30.1,30.31,NNW,329,0.0,0.0,37,0.00,,---,0.00,VWS V14.01,2013-04-17 00:51:00,
2013-04-16 17:56:00,56.3,29.7,30.31,NNE,17,0.0,0.0,36,0.00,,---,0.00,VWS V14.01,2013-04-17 00:56:00,
2013-04-16 18:02:00,56.5,31.2,30.31,NNE,28,0.0,0.0,38,0.00,,---,0.00,VWS V14.01,2013-04-17 01:02:00,
2013-04-16 18:07:00,56.3,29.0,30.31,NE,39,0.0,0.0,35,0.00,,---,0.00,VWS V14.01,2013-04-17 01:07:00,
2013-04-16 18:12:00,56.5,29.2,30.31,NW,325,0.0,0.0,35,0.00,,---,0.00,VWS V14.01,2013-04-17 01:12:00,
2013-04-16 18:17:00,56.5,30.6,30.31,NW,322,0.0,0.0,37,0.00,,---,0.00,VWS V14.01,2013-04-17 01:17:00,
2013-04-16 18:22:00,56.5,27.8,30.31,ENE,71,0.0,0.0,33,0.00,,---,0.00,VWS V14.01,2013-04-17 01:22:00,
2013-04-16 18:27:00,56.3,29.0,30.31,NNE,24,0.0,0.0,35,0.00,,---,0.00,VWS V14.01,2013-04-17 01:27:00,
2013-04-16 18:32:00,56.3,29.0,30.31,NW,319,0.0,0.0,35,0.00,,---,0.00,VWS V14.01,2013-04-17 01:32:00,
2013-04-16 18:37:00,56.3,27.6,30.31,NW,313,0.0,0.0,33,0.00,,---,0.00,VWS V14.01,2013-04-17 01:37:00,
2013-04-16 18:42:00,56.3,27.6,30.31,NW,312,0.0,0.0,33,0.00,,---,0.00,VWS V14.01,2013-04-17 01:42:00,
2013-04-16 18:47:00,56.0,28.0,30.31,NW,311,0.0,0.0,34,0.00,,---,0.00,VWS V14.01,2013-04-17 01:47:00,
2013-04-16 18:52:00,55.7,28.5,30.32,NW,307,0.0,0.0,35,0.00,,---,0.00,VWS V14.01,2013-04-17 01:52:00,
2013-04-16 18:57:00,55.6,28.4,30.32,WNW,288,0.0,0.0,35,0.00,,---,0.00,VWS V14.01,2013-04-17 01:57:00,
2013-04-16 19:02:00,55.3,28.1,30.32,NNW,331,0.0,0.0,35,0.00,,---,0.00,VWS V14.01,2013-04-17 02:02:00,
2013-04-16 19:07:00,55.3,28.8,30.32,NNW,328,0.0,0.0,36,0.00,,---,0.00,VWS V14.01,2013-04-17 02:07:00,
2013-04-16 19:12:00,55.3,29.5,30.32,NW,321,0.0,0.0,37,0.00,,---,0.00,VWS V14.01,2013-04-17 02:12:00,
2013-04-16 19:17:00,55.3,28.8,30.32,NNW,346,0.0,0.0,36,0.00,,---,0.00,VWS V14.01,2013-04-17 02:17:00,
2013-04-16 19:22:00,55.1,28.6,30.32,NNE,18,0.0,0.0,36,0.00,,---,0.00,VWS V14.01,2013-04-17 02:22:00,
2013-04-16 19:27:00,55.0,28.6,30.32,NE,36,0.0,0.0,36,0.00,,---,0.00,VWS V14.01,2013-04-17 02:27:00,
2013-04-16 19:32:00,54.8,27.7,30.32,North,351,0.0,0.0,35,0.00,,---,0.00,VWS V14.01,2013-04-17 02:32:00,
2013-04-16 19:38:00,54.7,28.3,30.32,North,350,0.0,0.0,36,0.00,,---,0.00,VWS V14.01,2013-04-17 02:38:00,
2013-04-16 19:43:00,54.4,27.3,30.32,North,360,0.0,0.0,35,0.00,,---,0.00,VWS V14.01,2013-04-17 02:43:00,
2013-04-16 19:48:00,54.1,27.1,30.32,North,10,0.0,0.0,35,0.00,,---,0.00,VWS V14.01,2013-04-17 02:48:00,
2013-04-16 19:53:00,53.8,27.5,30.32,North,10,0.0,0.0,36,0.00,,---,0.00,VWS V14.01,2013-04-17 02:53:00,
2013-04-16 19:58:00,53.5,27.2,30.33,North,10,0.0,0.0,36,0.00,,---,0.00,VWS V14.01,2013-04-17 02:58:00,
2013-04-16 20:03:00,53.2,28.3,30.33,North,9,0.0,0.0,38,0.00,,---,0.00,VWS V14.01,2013-04-17 03:03:00,
2013-04-16 20:08:00,53.1,28.8,30.33,North,10,0.0,0.0,39,0.00,,---,0.00,VWS V14.01,2013-04-17 03:08:00,
2013-04-16 20:13:00,52.8,29.8,30.33,North,9,0.0,0.0,41,0.00,,---,0.00,VWS V14.01,2013-04-17 03:13:00,
2013-04-16 20:18:00,52.3,29.9,30.34,North,9,0.0,0.0,42,0.00,,---,0.00,VWS V14.01,2013-04-17 03:18:00,
2013-04-16 20:23:00,52.0,30.8,30.34,North,9,0.0,0.0,44,0.00,,---,0.00,VWS V14.01,2013-04-17 03:23:00,
2013-04-16 20:28:00,51.7,30.5,30.34,North,10,0.0,0.0,44,0.00,,---,0.00,VWS V14.01,2013-04-17 03:28:00,
2013-04-16 20:33:00,51.4,30.8,30.35,North,10,0.0,0.0,45,0.00,,---,0.00,VWS V14.01,2013-04-17 03:33:00,
2013-04-16 20:38:00,50.8,30.2,30.35,North,10,0.0,0.0,45,0.00,,---,0.00,VWS V14.01,2013-04-17 03:38:00,
2013-04-16 20:43:00,50.4,31.0,30.35,North,10,0.0,0.0,47,0.00,,---,0.00,VWS V14.01,2013-04-17 03:43:00,
2013-04-16 20:48:00,50.1,31.2,30.35,North,10,0.0,0.0,48,0.00,,---,0.00,VWS V14.01,2013-04-17 03:48:00,
2013-04-16 20:53:00,49.8,31.4,30.35,North,10,0.0,0.0,49,0.00,,---,0.00,VWS V14.01,2013-04-17 03:53:00,
2013-04-16 20:58:00,49.5,31.6,30.35,North,10,0.0,0.0,50,0.00,,---,0.00,VWS V14.01,2013-04-17 03:58:00,
2013-04-16 21:00:00,49.4,31.6,30.36,North,10,0.0,0.0,50,0.00,,---,0.00,VWS V14.01,2013-04-17 04:00:00,
2013-04-16 21:01:00,49.2,31.4,30.35,North,9,0.0,0.0,50,0.00,,---,0.00,VWS V14.01,2013-04-17 04:01:00,
2013-04-16 21:03:00,49.2,31.4,30.36,North,10,0.0,0.0,50,0.00,,---,0.00,VWS V14.01,2013-04-17 04:03:00,
2013-04-16 21:08:00,48.8,31.0,30.36,North,9,0.0,0.0,50,0.00,,---,0.00,VWS V14.01,2013-04-17 04:08:00,
2013-04-16 21:13:00,48.5,31.7,30.36,North,10,0.0,0.0,52,0.00,,---,0.00,VWS V14.01,2013-04-17 04:13:00,
2013-04-16 21:18:00,48.0,31.7,30.36,NE,46,0.0,0.0,53,0.00,,---,0.00,VWS V14.01,2013-04-17 04:18:00,
2013-04-16 21:23:00,47.9,30.2,30.36,NNE,33,0.0,0.0,50,0.00,,---,0.00,VWS V14.01,2013-04-17 04:23:00,
2013-04-16 21:28:00,47.9,30.2,30.36,ENE,67,0.0,0.0,50,0.00,,---,0.00,VWS V14.01,2013-04-17 04:28:00,
2013-04-16 21:33:00,48.0,30.8,30.36,ENE,68,0.0,0.0,51,0.00,,---,0.00,VWS V14.01,2013-04-17 04:33:00,
2013-04-16 21:38:00,47.9,31.1,30.36,ENE,67,0.0,0.0,52,0.00,,---,0.00,VWS V14.01,2013-04-17 04:38:00,
2013-04-16 21:43:00,47.9,31.6,30.36,ENE,67,0.0,0.0,53,0.00,,---,0.00,VWS V14.01,2013-04-17 04:43:00,
2013-04-16 21:48:00,47.7,31.4,30.37,ENE,67,0.0,0.0,53,0.00,,---,0.00,VWS V14.01,2013-04-17 04:48:00,
2013-04-16 21:53:00,47.6,31.3,30.37,ENE,67,0.0,0.0,53,0.00,,---,0.00,VWS V14.01,2013-04-17 04:53:00,
2013-04-16 21:58:00,47.4,31.6,30.37,ENE,67,0.0,0.0,54,0.00,,---,0.00,VWS V14.01,2013-04-17 04:58:00,
2013-04-16 22:03:00,47.3,32.0,30.37,ENE,67,0.0,0.0,55,0.00,,---,0.00,VWS V14.01,2013-04-17 05:03:00,
2013-04-16 22:08:00,47.0,31.7,30.37,ENE,67,0.0,0.0,55,0.00,,---,0.00,VWS V14.01,2013-04-17 05:08:00,
2013-04-16 22:13:00,46.8,32.0,30.37,ENE,67,0.0,0.0,56,0.00,,---,0.00,VWS V14.01,2013-04-17 05:13:00,
2013-04-16 22:19:00,46.5,31.7,30.37,ENE,67,0.0,0.0,56,0.00,,---,0.00,VWS V14.01,2013-04-17 05:19:00,
2013-04-16 22:24:00,46.4,32.4,30.37,ENE,67,0.0,0.0,58,0.00,,---,0.00,VWS V14.01,2013-04-17 05:24:00,
2013-04-16 22:29:00,46.1,32.2,30.37,ENE,67,0.0,0.0,58,0.00,,---,0.00,VWS V14.01,2013-04-17 05:29:00,
2013-04-16 22:34:00,46.0,32.5,30.37,ENE,67,0.0,0.0,59,0.00,,---,0.00,VWS V14.01,2013-04-17 05:34:00,
2013-04-16 22:39:00,45.7,32.6,30.37,ENE,67,0.0,0.0,60,0.00,,---,0.00,VWS V14.01,2013-04-17 05:39:00,
2013-04-16 22:44:00,45.5,32.4,30.38,ENE,67,0.0,0.0,60,0.00,,---,0.00,VWS V14.01,2013-04-17 05:44:00,
2013-04-16 22:49:00,45.4,32.8,30.38,ENE,67,0.0,0.0,61,0.00,,---,0.00,VWS V14.01,2013-04-17 05:49:00,
2013-04-16 22:54:00,45.2,33.0,30.38,ENE,67,0.0,0.0,62,0.00,,---,0.00,VWS V14.01,2013-04-17 05:54:00,
2013-04-16 22:59:00,45.1,33.3,30.38,ENE,67,0.0,0.0,63,0.00,,---,0.00,VWS V14.01,2013-04-17 05:59:00,
2013-04-16 23:04:00,44.9,33.1,30.38,ENE,67,0.0,0.0,63,0.00,,---,0.00,VWS V14.01,2013-04-17 06:04:00,
2013-04-16 23:09:00,44.8,32.6,30.38,ENE,67,0.0,0.0,62,0.00,,---,0.00,VWS V14.01,2013-04-17 06:09:00,
2013-04-16 23:14:00,44.6,32.8,30.38,ENE,67,0.0,0.0,63,0.00,,---,0.00,VWS V14.01,2013-04-17 06:14:00,
2013-04-16 23:19:00,44.5,33.1,30.38,ENE,67,0.0,0.0,64,0.00,,---,0.00,VWS V14.01,2013-04-17 06:19:00,
2013-04-16 23:24:00,44.2,32.8,30.38,ENE,67,0.0,0.0,64,0.00,,---,0.00,VWS V14.01,2013-04-17 06:24:00,
2013-04-16 23:29:00,44.1,33.1,30.38,ENE,67,0.0,0.0,65,0.00,,---,0.00,VWS V14.01,2013-04-17 06:29:00,
2013-04-16 23:34:00,43.8,33.6,30.38,ENE,67,0.0,0.0,67,0.00,,---,0.00,VWS V14.01,2013-04-17 06:34:00,
2013-04-16 23:39:00,43.6,33.4,30.38,ENE,67,0.0,0.0,67,0.00,,---,0.00,VWS V14.01,2013-04-17 06:39:00,
2013-04-16 23:45:00,43.5,33.3,30.38,ENE,67,0.0,0.0,67,0.00,,---,0.00,VWS V14.01,2013-04-17 06:45:00,
2013-04-16 23:50:00,43.3,33.1,30.38,ENE,67,0.0,0.0,67,0.00,,---,0.00,VWS V14.01,2013-04-17 06:50:00,
2013-04-16 23:55:00,43.2,33.4,30.38,ENE,67,0.0,0.0,68,0.00,,---,0.00,VWS V14.01,2013-04-17 06:55:00,